Regional Weather Roundup
Issued by NWS Sterling, VA

Home | Current Version | Previous Version | Text Only | Print | Product List | Glossary Off
Versions: 1 2 3 4 5 6 7 8 9 10 11 12 13 14 15 16 17 18 19 20 21 22 23 24 25 26 27 28 29 30 31 32 33 34 35 36 37 38 39 40 41 42 43 44 45 46 47 48 49 50

000
ASUS41 KLWX 200010
RWRLWX

REGIONAL WEATHER ROUNDUP
NATIONAL WEATHER SERVICE BALTIMORE MD/WASHINGTON DC
800 PM EDT FRI SEP 19 2014

Note: "FAIR" indicates few or no clouds below 12,000 feet
with no significant weather and/or obstructions to visibility.
 TC=TEMPERATURE CELSIUS

 * =Non NWS site. Station does not report precipitation (e.g. rain,
    snow, etc.), thunder, or fog.

DCZ001-MDZ009-015-VAZ040>042-051-053>054-200100-
WASHINGTON METRO

CITY           SKY/WX    TMP DP  RH WIND       PRES   REMARKS
WASHINGTON NAT MOCLDY    72  58  61 E9        30.27R
DULLES         CLOUDY    68  52  56 SE6       30.27R
ANDREWS AFB    CLOUDY    66  59  77 E6        30.28R
QUANTICO       MOCLDY    71  57  61 E8        30.27R
COLLEGE PARK*  CLOUDY    70  59  68 SE3       30.28R
LEESBURG*      CLOUDY    72  54  53 SE3       30.27R
MANASSAS*      CLOUDY    70  57  64 E5        30.26R
GAITHERSBURG*  PTCLDY    64  57  77 CALM      30.31S

$$

MDZ006>007-011-014-200100-
BALTIMORE METRO

CITY           SKY/WX    TMP DP  RH WIND       PRES   REMARKS
BWI AIRPORT    MOCLDY    67  56  67 E10       30.28R
MD SCIENCE CTR   N/A     69  56  62 MISG      30.29R
MARTIN STATE   PTCLDY    68  61  77 E8        30.30
ANNAPOLIS      CLEAR     68  59  73 E15       30.28R
FORT MEADE*    CLOUDY    66  55  68 E8        30.30R

$$

MDZ012-015-019>023-200100-
MARYLAND EASTERN SHORE

CITY           SKY/WX    TMP DP  RH WIND       PRES   REMARKS
OCEAN CITY     CLEAR     70  58  65 E13       30.28R
SALISBURY      CLEAR     66  60  81 NE6       30.28R
BAY BRIDGE AP*   N/A     66  55  68 E9        30.29R
CAMBRIDGE*     PTCLDY    64  59  82 E6        30.28S
EASTON*        CLEAR     66  59  77 CALM      30.33R

$$

MDZ017>025-200100-
SOUTHERN MARYLAND

CITY           SKY/WX    TMP DP  RH WIND       PRES   REMARKS
PATUXENT RIVER PTCLDY    69  60  73 E14       30.26S
ST INIGOES     PTCLDY    68  57  68 E6        30.26R
LEONARDTOWN*   PTCLDY    68  59  73 E6        30.28S

$$

MDZ003>005-200100-
NORTH CENTRAL MARYLAND

CITY           SKY/WX    TMP DP  RH WIND       PRES   REMARKS
FREDERICK*     CLOUDY    70  61  73 MISG      30.29R
HAGERSTOWN APT CLOUDY    68  54  60 SE6       30.26R
WESTMINSTER*   PTCLDY    64  57  77 E3        30.29R

$$

MDZ501>502-200100-
WESTERN MARYLAND

CITY           SKY/WX    TMP DP  RH WIND       PRES   REMARKS
OAKLAND*       PTCLDY    54 N/A N/A SE13      30.25S
CUMBERLAND*    CLOUDY    68  54  60 S3        30.28R

$$

VAZ025>031-200100-
SHENANDOAH VALLEY

CITY           SKY/WX    TMP DP  RH WIND       PRES   REMARKS
WINCHESTER*    CLOUDY    66  55  68 SE3       30.26R
STAUNTON*      CLOUDY    64  56  75 CALM      30.28S

$$

WVZ021-048>050-054>055-200100-
EASTERN WEST VIRGINIA PANHANDLE

CITY           SKY/WX    TMP DP  RH WIND       PRES   REMARKS
MARTINSBURG    CLOUDY    68  54  60 CALM      30.26R
PETERSBURG*    CLOUDY    64  58  81 CALM      30.25S

$$

VAZ036>039-050-200100-
CENTRAL FOOTHILLS

CITY           SKY/WX    TMP DP  RH WIND       PRES   REMARKS
CHARLOTTESVILL CLOUDY    65  59  81 CALM      30.26S
ORANGE*        CLOUDY    66  61  82 CALM      30.27S

$$

VAZ055>057-200100-
NORTH AND CENTRAL PIEDMONT

CITY           SKY/WX    TMP DP  RH WIND       PRES   REMARKS
FREDERICKSBRG* MOCLDY    69  60  73 CALM      30.25R
STAFFORD*      CLOUDY    66  61  84 CALM      30.29R

$$

NCZ024-NYZ072-PAZ021-071-VAZ022-071-200100-
OTHER REGIONAL OBSERVATIONS

CITY           SKY/WX    TMP DP  RH WIND       PRES   REMARKS
NEW YORK CITY  MOCLDY    61  46  57 VRB5      30.39R
PHILADELPHIA   PTCLDY    62  54  74 E13       30.33R
PITTSBURGH     PTCLDY    68  55  63 SE9       30.14F
ROANOKE        CLOUDY    61  57  87 N3        30.28R
RICHMOND       PTCLDY    69  58  67 E6        30.25R
RALEIGH        PTCLDY    70  60  70 E7        30.20S

$$

ANZ530>537-200100-
MARINE OBSERVATIONS

STATION/POSITION TIME  TEMP    WIND        PRES
                       AIR SEA DIR/SP/G
                 (UTC) (F)     (DEG/KT/KT) (MB)
THOMAS PT LIGHT  0000   68 74  110/ 17/ 19 1026.2R
BALT KEY BRIDGE  0000   69     100/ 17/ 18 1024.9S
COVE POINT       0000   69     120/ 12/ 14 1024.9S
LEWISETTA        0000   71 75  150/  8/ 11 1024.2R
SOLOMONS ISLAND  0000      76                N/A
PINEY POINT      0000          110/ 14/ 16   N/A

$$




USA.gov is the U.S. government's official web portal to all federal, state and local government web resources and services.